Time,TemperatureF,DewpointF,PressureIn,WindDirection,WindDirectionDegrees,WindSpeedMPH,WindSpeedGustMPH,Humidity,HourlyPrecipIn,Conditions,Clouds,dailyrainin,SolarRadiationWatts/m^2,SoftwareType,DateUTC
2013-01-26 00:04:00,32.9,31.0,30.26,NE,51,0.0,0.0,93,0.00,,,0.00,0,weatherlink.com 1.10,2013-01-26 06:04:00,
2013-01-26 00:19:00,32.7,31.0,30.25,NE,51,0.0,0.0,93,0.00,,,0.00,0,weatherlink.com 1.10,2013-01-26 06:19:00,
2013-01-26 00:34:00,32.6,31.0,30.26,NE,51,0.0,0.0,93,0.00,,,0.00,0,weatherlink.com 1.10,2013-01-26 06:34:00,
2013-01-26 00:49:00,32.6,31.0,30.26,NE,51,0.0,1.0,94,0.00,,,0.00,0,weatherlink.com 1.10,2013-01-26 06:49:00,
2013-01-26 01:04:00,32.6,31.0,30.26,NE,51,0.0,0.0,93,0.00,,,0.00,0,weatherlink.com 1.10,2013-01-26 07:04:00,
2013-01-26 01:20:00,32.3,31.0,30.27,NE,51,0.0,0.0,93,0.00,,,0.00,0,weatherlink.com 1.10,2013-01-26 07:20:00,
2013-01-26 01:34:00,32.1,31.0,30.27,NE,51,0.0,0.0,94,0.00,,,0.00,0,weatherlink.com 1.10,2013-01-26 07:34:00,
2013-01-26 01:49:00,32.1,31.0,30.27,NE,51,0.0,0.0,94,0.00,,,0.00,0,weatherlink.com 1.10,2013-01-26 07:49:00,
2013-01-26 02:04:00,31.9,30.0,30.27,NE,51,0.0,1.0,94,0.00,,,0.00,0,weatherlink.com 1.10,2013-01-26 08:04:00,
2013-01-26 02:19:00,31.9,30.0,30.27,NE,51,0.0,0.0,94,0.00,,,0.00,0,weatherlink.com 1.10,2013-01-26 08:19:00,
2013-01-26 02:35:00,31.5,30.0,30.27,NE,51,0.0,0.0,94,0.00,,,0.00,0,weatherlink.com 1.10,2013-01-26 08:35:00,
2013-01-26 02:50:00,31.6,30.0,30.28,NE,51,0.0,0.0,94,0.00,,,0.00,0,weatherlink.com 1.10,2013-01-26 08:50:00,
2013-01-26 03:05:00,31.6,30.0,30.27,NE,51,0.0,0.0,94,0.00,,,0.00,0,weatherlink.com 1.10,2013-01-26 09:05:00,
2013-01-26 03:20:00,31.3,30.0,30.27,NE,51,0.0,1.0,94,0.00,,,0.00,0,weatherlink.com 1.10,2013-01-26 09:20:00,
2013-01-26 03:35:00,30.9,29.0,30.27,NE,51,0.0,0.0,94,0.00,,,0.00,0,weatherlink.com 1.10,2013-01-26 09:35:00,
2013-01-26 03:50:00,31.2,30.0,30.28,NE,51,0.0,1.0,95,0.00,,,0.00,0,weatherlink.com 1.10,2013-01-26 09:50:00,
2013-01-26 04:05:00,31.3,30.0,30.28,NE,51,0.0,0.0,94,0.00,,,0.00,0,weatherlink.com 1.10,2013-01-26 10:05:00,
2013-01-26 04:20:00,31.4,30.0,30.28,NE,51,0.0,1.0,95,0.00,,,0.00,0,weatherlink.com 1.10,2013-01-26 10:20:00,
2013-01-26 04:35:00,31.2,30.0,30.29,NE,51,0.0,0.0,94,0.00,,,0.00,0,weatherlink.com 1.10,2013-01-26 10:35:00,
2013-01-26 04:50:00,31.6,30.0,30.28,NE,51,0.0,2.0,95,0.00,,,0.00,0,weatherlink.com 1.10,2013-01-26 10:50:00,
2013-01-26 05:05:00,31.4,30.0,30.29,NE,51,0.0,0.0,94,0.00,,,0.00,0,weatherlink.com 1.10,2013-01-26 11:05:00,
2013-01-26 05:20:00,31.5,30.0,30.29,NE,51,0.0,0.0,95,0.00,,,0.00,0,weatherlink.com 1.10,2013-01-26 11:20:00,
2013-01-26 05:35:00,31.6,30.0,30.28,NE,51,0.0,1.0,94,0.00,,,0.00,0,weatherlink.com 1.10,2013-01-26 11:35:00,
2013-01-26 05:50:00,31.6,30.0,30.28,NE,51,0.0,1.0,94,0.00,,,0.00,0,weatherlink.com 1.10,2013-01-26 11:50:00,
2013-01-26 06:05:00,31.3,30.0,30.29,NE,51,0.0,0.0,94,0.00,,,0.00,0,weatherlink.com 1.10,2013-01-26 12:05:00,
2013-01-26 06:21:00,31.8,31.0,30.29,NE,51,0.0,3.0,95,0.00,,,0.00,0,weatherlink.com 1.10,2013-01-26 12:21:00,
2013-01-26 06:37:00,31.9,31.0,30.30,NE,51,0.0,1.0,95,0.00,,,0.00,0,weatherlink.com 1.10,2013-01-26 12:37:00,
2013-01-26 06:51:00,31.9,31.0,30.30,NE,51,0.0,0.0,95,0.00,,,0.00,0,weatherlink.com 1.10,2013-01-26 12:51:00,
2013-01-26 07:07:00,32.2,31.0,30.30,NE,51,0.0,1.0,95,0.00,,,0.00,0,weatherlink.com 1.10,2013-01-26 13:07:00,
2013-01-26 07:21:00,32.7,32.0,30.30,NE,51,0.0,2.0,95,0.00,,,0.00,23,weatherlink.com 1.10,2013-01-26 13:21:00,
2013-01-26 07:36:00,33.0,32.0,30.31,NE,51,1.0,2.0,95,0.00,,,0.00,39,weatherlink.com 1.10,2013-01-26 13:36:00,
2013-01-26 07:53:00,33.5,32.0,30.31,NE,51,0.0,2.0,95,0.00,,,0.00,53,weatherlink.com 1.10,2013-01-26 13:53:00,
2013-01-26 08:08:00,34.2,33.0,30.31,East,89,2.0,3.0,95,0.00,,,0.00,83,weatherlink.com 1.10,2013-01-26 14:08:00,
2013-01-26 08:23:00,34.9,34.0,30.32,ESE,122,2.0,4.0,95,0.00,,,0.00,79,weatherlink.com 1.10,2013-01-26 14:23:00,
2013-01-26 08:38:00,35.6,34.0,30.31,SE,137,1.0,4.0,94,0.00,,,0.00,98,weatherlink.com 1.10,2013-01-26 14:38:00,
2013-01-26 08:53:00,36.2,35.0,30.32,East,85,5.0,5.0,94,0.00,,,0.00,114,weatherlink.com 1.10,2013-01-26 14:53:00,
2013-01-26 09:08:00,37.1,35.0,30.33,SE,139,1.0,4.0,93,0.00,,,0.00,158,weatherlink.com 1.10,2013-01-26 15:08:00,
2013-01-26 09:24:00,38.0,36.0,30.34,SE,129,3.0,7.0,91,0.00,,,0.00,188,weatherlink.com 1.10,2013-01-26 15:24:00,
2013-01-26 09:40:00,38.7,36.0,30.34,SE,135,4.0,4.0,88,0.00,,,0.00,227,weatherlink.com 1.10,2013-01-26 15:40:00,
2013-01-26 09:55:00,40.0,36.0,30.35,East,101,2.0,5.0,85,0.00,,,0.00,295,weatherlink.com 1.10,2013-01-26 15:55:00,
2013-01-26 10:10:00,41.7,36.0,30.35,NNE,18,2.0,5.0,80,0.00,,,0.00,457,weatherlink.com 1.10,2013-01-26 16:10:00,
2013-01-26 10:25:00,44.0,36.0,30.35,ESE,122,3.0,6.0,73,0.00,,,0.00,510,weatherlink.com 1.10,2013-01-26 16:25:00,
2013-01-26 10:41:00,45.9,35.0,30.35,NNE,31,4.0,8.0,66,0.00,,,0.00,541,weatherlink.com 1.10,2013-01-26 16:41:00,
2013-01-26 10:55:00,46.5,34.0,30.35,ENE,60,3.0,10.0,62,0.00,,,0.00,591,weatherlink.com 1.10,2013-01-26 16:55:00,
2013-01-26 11:10:00,47.8,33.0,30.34,SE,141,3.0,8.0,58,0.00,,,0.00,584,weatherlink.com 1.10,2013-01-26 17:10:00,
2013-01-26 11:27:00,48.5,33.0,30.33,SSE,154,2.0,9.0,56,0.00,,,0.00,578,weatherlink.com 1.10,2013-01-26 17:27:00,
2013-01-26 11:41:00,50.0,33.0,30.34,SSE,149,2.0,7.0,53,0.00,,,0.00,631,weatherlink.com 1.10,2013-01-26 17:41:00,
2013-01-26 11:56:00,50.5,33.0,30.34,SSE,162,3.0,9.0,52,0.00,,,0.00,613,weatherlink.com 1.10,2013-01-26 17:56:00,
2013-01-26 12:12:00,51.0,33.0,30.33,NNE,22,2.0,7.0,50,0.00,,,0.00,554,weatherlink.com 1.10,2013-01-26 18:12:00,
2013-01-26 12:27:00,51.5,32.0,30.32,ESE,119,0.0,8.0,47,0.00,,,0.00,410,weatherlink.com 1.10,2013-01-26 18:27:00,
2013-01-26 12:41:00,51.4,32.0,30.31,East,87,3.0,7.0,47,0.00,,,0.00,545,weatherlink.com 1.10,2013-01-26 18:41:00,
2013-01-26 12:58:00,51.7,32.0,30.30,ESE,110,2.0,7.0,47,0.00,,,0.00,353,weatherlink.com 1.10,2013-01-26 18:58:00,
2013-01-26 13:14:00,52.7,32.0,30.29,SSE,147,2.0,6.0,46,0.00,,,0.00,434,weatherlink.com 1.10,2013-01-26 19:14:00,
2013-01-26 13:27:00,53.5,33.0,30.30,SSE,152,3.0,4.0,46,0.00,,,0.00,629,weatherlink.com 1.10,2013-01-26 19:27:00,
2013-01-26 13:42:00,53.6,33.0,30.29,WNW,291,3.0,5.0,45,0.00,,,0.00,199,weatherlink.com 1.10,2013-01-26 19:42:00,
2013-01-26 13:59:00,53.9,31.0,30.27,ENE,65,4.0,7.0,42,0.00,,,0.00,452,weatherlink.com 1.10,2013-01-26 19:59:00,
2013-01-26 14:14:00,54.5,30.0,30.27,ENE,66,3.0,9.0,40,0.00,,,0.00,390,weatherlink.com 1.10,2013-01-26 20:14:00,
2013-01-26 14:29:00,54.2,30.0,30.27,NE,51,3.0,8.0,40,0.00,,,0.00,179,weatherlink.com 1.10,2013-01-26 20:29:00,
2013-01-26 14:44:00,54.6,31.0,30.27,NE,47,0.0,7.0,41,0.00,,,0.00,381,weatherlink.com 1.10,2013-01-26 20:44:00,
2013-01-26 14:59:00,55.2,32.0,30.27,North,350,2.0,9.0,41,0.00,,,0.00,346,weatherlink.com 1.10,2013-01-26 20:59:00,
2013-01-26 15:14:00,54.8,31.0,30.27,ENE,74,3.0,8.0,40,0.00,,,0.00,265,weatherlink.com 1.10,2013-01-26 21:14:00,
2013-01-26 15:29:00,54.6,32.0,30.27,ESE,116,1.0,8.0,42,0.00,,,0.00,169,weatherlink.com 1.10,2013-01-26 21:29:00,
2013-01-26 15:44:00,54.1,31.0,30.27,East,87,5.0,7.0,42,0.00,,,0.00,225,weatherlink.com 1.10,2013-01-26 21:44:00,
2013-01-26 15:59:00,53.8,32.0,30.27,East,85,2.0,7.0,43,0.00,,,0.00,127,weatherlink.com 1.10,2013-01-26 21:59:00,
2013-01-26 16:14:00,53.4,32.0,30.27,East,89,5.0,7.0,45,0.00,,,0.00,90,weatherlink.com 1.10,2013-01-26 22:14:00,
2013-01-26 16:29:00,53.0,33.0,30.27,ENE,76,2.0,8.0,46,0.00,,,0.00,70,weatherlink.com 1.10,2013-01-26 22:29:00,
2013-01-26 16:44:00,52.5,33.0,30.27,East,99,2.0,7.0,47,0.00,,,0.00,44,weatherlink.com 1.10,2013-01-26 22:44:00,
2013-01-26 16:59:00,52.0,33.0,30.27,East,83,3.0,5.0,48,0.00,,,0.00,21,weatherlink.com 1.10,2013-01-26 22:59:00,
2013-01-26 17:14:00,51.5,33.0,30.27,East,91,2.0,5.0,49,0.00,,,0.00,11,weatherlink.com 1.10,2013-01-26 23:14:00,
2013-01-26 17:30:00,51.2,33.0,30.27,NE,50,3.0,3.0,51,0.00,,,0.00,0,weatherlink.com 1.10,2013-01-26 23:30:00,
2013-01-26 17:44:00,50.6,33.0,30.27,NE,47,2.0,4.0,52,0.00,,,0.00,0,weatherlink.com 1.10,2013-01-26 23:44:00,
2013-01-26 17:59:00,50.2,34.0,30.27,ENE,69,2.0,3.0,54,0.00,,,0.00,0,weatherlink.com 1.10,2013-01-26 23:59:00,
2013-01-26 18:14:00,50.0,33.0,30.27,ENE,74,2.0,5.0,53,0.00,,,0.00,0,weatherlink.com 1.10,2013-01-27 00:14:00,
2013-01-26 18:29:00,49.8,33.0,30.28,NE,41,1.0,5.0,52,0.00,,,0.00,0,weatherlink.com 1.10,2013-01-27 00:29:00,
2013-01-26 18:45:00,49.7,33.0,30.28,East,92,2.0,5.0,52,0.00,,,0.00,0,weatherlink.com 1.10,2013-01-27 00:45:00,
2013-01-26 21:25:00,48.2,35.0,30.27,SE,131,4.0,7.0,60,0.00,,,0.00,0,weatherlink.com 1.10,2013-01-27 03:25:00,
2013-01-26 21:30:00,48.2,35.0,30.27,East,98,3.0,8.0,60,0.00,,,0.00,0,weatherlink.com 1.10,2013-01-27 03:30:00,
2013-01-26 21:45:00,48.1,35.0,30.28,ENE,64,2.0,7.0,60,0.00,,,0.00,0,weatherlink.com 1.10,2013-01-27 03:45:00,
2013-01-26 22:01:00,48.1,35.0,30.29,ESE,107,0.0,3.0,60,0.00,,,0.00,0,weatherlink.com 1.10,2013-01-27 04:01:00,
2013-01-26 22:15:00,48.1,35.0,30.29,ESE,122,0.0,2.0,61,0.00,,,0.00,0,weatherlink.com 1.10,2013-01-27 04:15:00,
2013-01-26 22:30:00,48.0,35.0,30.29,East,88,1.0,3.0,60,0.00,,,0.00,0,weatherlink.com 1.10,2013-01-27 04:30:00,
2013-01-26 22:45:00,48.0,35.0,30.29,East,91,1.0,2.0,61,0.00,,,0.00,0,weatherlink.com 1.10,2013-01-27 04:45:00,
2013-01-26 23:00:00,48.0,35.0,30.28,ENE,76,2.0,3.0,61,0.00,,,0.00,0,weatherlink.com 1.10,2013-01-27 05:00:00,
2013-01-26 23:15:00,47.8,35.0,30.28,SE,124,0.0,3.0,61,0.00,,,0.00,0,weatherlink.com 1.10,2013-01-27 05:15:00,
2013-01-26 23:30:00,47.7,35.0,30.27,SE,124,2.0,4.0,62,0.00,,,0.00,0,weatherlink.com 1.10,2013-01-27 05:30:00,
2013-01-26 23:45:00,47.7,35.0,30.27,ESE,102,2.0,6.0,61,0.00,,,0.00,0,weatherlink.com 1.10,2013-01-27 05:45:00,